Find Starlink 2535

NORAD ID: 48295 Int'l Des: 2021-036 Owner: SPXS Country: US Constellation: starlink operational
LEOCIRCULAR

当前视图

正在加载3D地球...

About Starlink 2535

Starlink 2535 (NORAD 48295) is a starlink constellation satellite (v1.0) launched Apr 29, 2021 by SPXS of US. It operates in LEO, CIRCULAR orbit with a mass of 260.00 kg.

关于 Starlink 2535

正在加载描述...

即将过境

Passes for default location (London). Set your location on the main map for personalized predictions.

高度历史

Loading altitude history...

两行轨道根数

1 48295U 21036V 26195.41449229 .00002420 00000-0 89698-4 0 9990
2 48295 53.1570 205.8947 0001400 68.7211 291.3940 15.31709992287827
Epoch: Jul 14, 2026 • Age: 10 hours

当前状态

高度 473.1 km
远地点 / 近地点 N/A
速度 7.63 km/s
星下点 36.35°N, 119.23°E
发射日期 Apr 29, 2021
运行时间 5.2 years
类型 internet

技术详情

分类 Payload
质量 260.00 kg
干质量 248.00 kg
总质量 260.00 kg
长度 0.20 m
直径 2.80 m
跨度 9.00 m
形状 Box + pan
制造商 SPXS
平台类型 Starlink
阶段状态 In Orbit
所有者/国家 SPXS/US

Most Searched